Regional Weather Roundup
Issued by NWS

Home | Current Version | Previous Version | Text Only | Print | Product List | Glossary On
Versions: 1 2 3 4 5 6 7 8 9 10 11 12 13 14 15 16 17 18 19 20 21 22 23 24 25 26 27 28
000
ASUS45 KCYS 210510
RWRWY

WYOMING REGIONAL WEATHER ROUNDUP
NATIONAL WEATHER SERVICE CHEYENNE WY
1100 PM MDT THU JUL 20 2017

NOTE:  "FAIR" INDICATES FEW OR NO CLOUDS BELOW 12,000 FEET
WITH NO SIGNIFICANT WEATHER AND/OR OBSTRUCTIONS TO VISIBILITY.

WYZ001-210600-
YELLOWSTONE NATIONAL PARK

CITY           SKY/WX    TMP DP  RH WIND       PRES   REMARKS
LK YELLOWSTONE   N/A     49  48  97 CALM      30.28S
W YELLOWSTONE  NOT AVBL

$$
WYZ002>013-054>058-071-098>099-210600-
NORTHERN WYOMING

CITY           SKY/WX    TMP DP  RH WIND       PRES   REMARKS
JACKSON        FAIR      55  54  94 CALM      30.19S
CODY           FAIR      69  54  58 SE15      30.02R
GREYBULL       FAIR      66  59  78 NE5       29.96F
WORLAND        FAIR      64  59  83 VRB5      29.96S
SHERIDAN       FAIR      72  52  49 S6        29.88F
BUFFALO        FAIR      74  48  39 S18       29.97F
GILLETTE       FAIR      69  59  70 S12       29.96F
HULETT         RAIN      64  61  88 SE30      29.96F
NEWCASTLE      LGT RAIN  68  57  68 N16G26    30.02F

$$
WYZ014>020-022>026-101>103-210600-
CENTRAL WYOMING

CITY           SKY/WX    TMP DP  RH WIND       PRES   REMARKS
BIG PINEY      MOCLDY    58  54  86 N7        30.25R
PINEDALE       FAIR      55  55 100 NW6       30.25S
DUBOIS         FAIR      55  50  82 NW18      30.22F
LANDER         FAIR      65  54  67 E7        30.12F
RIVERTON       FAIR      63  59  87 W5        30.11S
CASPER         MOCLDY    64  57  78 SE8       30.11F
DOUGLAS        LGT RAIN  65  59  81 SW7       30.15S

$$
WYZ021-027>030-104>119-210600-
SOUTHERN WYOMING

CITY           SKY/WX    TMP DP  RH WIND       PRES   REMARKS
EVANSTON       FAIR      69  51  52 S6        30.24R
KEMMERER         N/A    N/A N/A N/A N6        30.27R
FORT BRIDGER   FAIR      70  50  48 W6        30.26S
ROCK SPRINGS   CLOUDY    64  56  75 SE15      30.23R
RAWLINS        CLOUDY    64  52  64 SE9       30.29R
SARATOGA       LGT RAIN  61  54  77 N8        30.29F
LARAMIE        FAIR      62  52  69 SW15G21   30.25F
CHEYENNE       FAIR      68  53  58 NW12      30.14F
TORRINGTON     MOCLDY    77  54  44 N7        29.98F
PINE BLUFFS    FAIR      75  46  35 W15G21    30.10F

$$




USA.gov is the U.S. government's official web portal to all federal, state and local government web resources and services.